Location: El Bakhil
(32.7726°N, 5.5387°W)
Time: 10:30:40
(UTC+00:00)

USA 234 - Pass Details

Date: 03 March 2021
Orbit: 1102 x 1105 km, 123.0° (Epoch: 14 April)

Event Time Altitude Azimuth Distance (km) Brightness Sun altitude
Exits shadow 19:39:57 - 38° (NE) 3,623 5.7 -17.4°
Reaches altitude 10° 19:41:41 10° 36° (NE) 2,962 5.2 -17.7°
Maximum altitude 19:48:07 64° 316° (NW) 1,209 3.6 -19.1°
Drops below altitude 10° 19:54:33 10° 237° (WSW) 2,953 6.2 -20.4°
Sets 19:57:03 0° 234° (SW) 3,909 6.9 -20.9°
